Theta_e
347 346 345 345 345 345 345 345 346 346 345 344 344 343 342 341 341 342 342 341 341 340 339 339 338 338 337 336 335 334 333 331 329 328 327 326 326 325 323 322 321 321 320 319 318 318 318 318 317 316 315 314 314 312 312 311 311 311 312 312 312 312 313 313 313 315 312 309 307 304 304 304 303 302 302 303 304 303 302 303 303 303 302 303 303
346 345 345 344 344 344 345 345 346 346 345 345 344 343 342 341 341 342 342 341 341 340 339 338 338 337 337 335 334 333 332 330 328 327 326 326 325 323 322 321 320 320 319 317 317 317 317 316 315 315 314 313 312 311 310 309 308 308 308 309 310 311 311 311 312 314 312 308 307 305 303 303 303 303 302 303 303 303 303 303 303 303 303 303 304
345 344 344 344 344 344 345 345 346 346 345 345 344 343 342 341 341 341 341 341 341 340 339 338 337 337 336 335 334 333 331 329 327 326 325 325 323 322 321 320 319 319 318 316 316 316 316 315 315 314 313 312 311 309 309 308 307 307 307 308 309 310 311 310 311 313 311 308 306 305 304 303 303 303 302 303 303 303 303 303 303 303 303 303 304
345 344 344 344 343 344 344 345 345 345 345 345 344 343 342 341 341 341 341 341 340 340 339 337 337 336 335 334 333 332 330 328 327 325 324 324 322 321 320 320 319 318 317 315 315 315 315 315 314 313 312 311 311 309 309 308 306 307 307 307 310 311 311 310 311 310 310 308 305 305 305 304 304 303 302 303 303 303 303 303 303 304 304 303 304
345 345 345 344 343 343 344 344 345 345 345 344 343 342 342 342 341 340 340 340 340 339 338 337 336 335 334 333 332 331 329 327 326 324 323 322 321 321 320 319 318 317 316 315 314 314 314 314 314 312 311 311 310 309 308 307 307 306 305 306 309 309 308 309 309 308 307 307 305 305 305 304 303 303 302 302 303 303 303 303 303 304 304 304 305
345 345 345 343 343 343 344 344 344 345 345 344 343 342 342 341 340 339 340 340 339 338 337 336 335 335 334 333 332 330 328 327 325 324 323 321 320 320 320 319 318 316 315 315 314 314 314 314 313 311 311 311 310 309 308 308 307 306 305 306 305 304 305 307 306 305 306 306 306 305 304 304 304 304 303 302 302 303 303 304 304 304 304 305 305
345 345 345 343 343 343 343 343 343 344 344 344 343 342 341 341 340 339 339 340 339 337 336 335 334 334 333 332 331 330 328 326 324 323 322 321 320 320 319 318 316 315 314 314 313 313 313 313 312 311 310 310 310 309 308 308 307 306 306 306 302 301 304 306 304 305 306 306 305 305 305 305 305 305 304 302 302 303 303 304 304 305 304 304 304
346 346 345 344 343 342 342 343 343 343 344 343 343 342 341 340 339 338 339 339 338 337 336 334 333 333 332 331 330 329 327 325 324 322 321 320 320 320 319 317 316 314 314 313 313 313 312 312 311 310 309 310 309 308 308 307 307 306 306 305 303 302 304 305 304 305 305 305 305 305 305 305 304 304 304 303 304 305 305 303 304 305 305 304 304
346 345 345 344 343 342 342 343 343 343 343 342 342 341 341 340 339 338 339 339 338 337 335 334 333 332 331 330 328 327 325 325 325 324 321 319 320 320 319 317 315 314 313 312 312 312 311 311 310 309 309 309 308 307 307 306 306 306 305 304 304 305 305 304 304 305 304 304 305 305 305 305 305 305 305 304 305 305 304 304 305 305 305 304 305
346 345 344 343 343 342 342 342 343 342 342 342 342 341 340 339 338 338 338 338 337 336 335 333 332 332 330 328 327 325 325 326 328 326 322 319 320 320 318 316 314 313 313 312 312 311 311 310 309 308 307 306 304 303 303 301 303 305 305 304 304 305 305 305 304 304 304 305 305 306 305 305 305 305 305 305 304 304 304 305 305 305 304 305 305
346 344 343 343 342 342 341 342 342 342 342 342 341 340 340 339 338 338 338 337 337 335 334 333 332 331 329 327 326 325 326 327 330 328 323 320 320 319 318 316 314 313 312 312 312 311 310 310 309 307 305 303 302 302 301 301 301 303 302 303 305 306 305 305 305 305 305 305 305 306 305 306 306 305 304 305 304 304 304 304 304 305 305 305 305
344 343 342 342 342 341 342 342 342 342 341 342 341 340 339 338 338 338 337 337 336 335 333 333 331 330 328 327 326 326 326 328 330 328 322 320 319 319 317 315 313 312 312 312 311 310 310 310 309 306 304 304 303 302 302 301 302 302 300 299 302 304 305 305 305 305 304 305 306 306 305 306 306 305 304 304 304 304 304 304 305 305 305 305 305
343 342 342 342 341 341 342 342 341 341 341 341 340 339 338 337 337 337 337 337 335 334 333 332 331 329 328 327 326 325 326 328 330 327 322 319 319 318 317 315 313 312 311 311 310 310 310 309 309 307 305 304 304 303 303 302 302 301 299 296 297 299 300 303 304 304 305 306 306 305 305 305 305 305 304 304 304 304 304 304 305 305 305 304 304
343 341 341 341 341 341 342 342 341 341 340 340 339 338 337 337 337 337 337 336 335 334 333 331 330 329 328 327 326 325 325 327 329 326 321 319 319 318 316 314 312 311 311 310 310 310 310 309 309 308 308 306 304 305 304 302 301 300 298 298 298 298 297 299 301 301 303 306 306 306 305 305 304 305 305 303 303 303 304 305 305 304 304 303 303
342 341 340 341 341 341 341 341 341 340 339 339 338 337 337 336 337 337 337 336 335 334 332 330 329 329 328 327 325 324 325 327 328 326 321 319 319 317 315 313 312 311 311 310 311 310 309 309 309 309 309 307 305 305 306 304 302 301 300 301 302 301 300 299 300 300 301 303 305 306 305 305 304 305 305 304 303 304 304 304 303 303 303 303 304
341 341 340 341 341 341 341 341 340 340 339 338 338 337 336 336 336 337 337 335 334 334 332 329 328 328 327 326 325 324 324 327 329 326 321 318 317 316 314 313 312 311 311 311 311 310 309 309 309 309 310 308 306 305 306 305 303 302 302 303 303 303 303 302 301 301 301 302 303 305 305 304 304 304 303 303 302 303 303 303 303 303 304 305 304
340 341 341 341 341 341 340 340 341 340 338 337 337 336 336 336 337 336 336 336 334 332 331 329 328 327 326 325 324 323 323 326 328 325 321 318 315 313 313 313 312 311 311 311 310 310 310 308 308 309 310 308 306 305 305 304 304 303 303 304 304 304 305 304 302 300 300 300 301 303 304 303 302 300 300 299 299 300 301 302 303 304 304 304 303
341 341 341 341 340 340 340 340 340 339 338 337 336 336 336 336 336 335 335 336 334 332 330 329 328 326 325 324 324 323 324 325 326 325 321 317 314 313 313 312 311 311 311 311 310 310 309 308 308 309 309 308 306 304 304 303 304 303 303 304 304 303 304 306 304 301 300 299 298 299 300 301 300 299 299 299 298 298 299 301 302 303 303 303 303
341 341 341 340 340 340 340 340 340 338 337 337 336 336 336 336 335 334 334 334 333 331 330 329 328 326 325 324 324 324 324 325 325 324 322 317 313 313 313 312 311 311 311 311 310 309 309 308 308 308 308 307 305 304 303 302 302 303 303 303 303 302 302 306 306 303 302 301 299 299 299 299 299 299 299 299 298 298 298 300 301 302 303 303 303
341 341 341 341 340 340 341 340 339 338 337 337 336 335 335 335 334 334 333 332 331 330 329 328 327 326 324 324 324 324 324 325 324 324 322 317 313 313 313 311 311 311 311 310 309 309 310 309 307 306 307 306 304 304 303 300 300 303 303 302 302 302 302 305 306 304 303 303 302 301 301 301 301 302 301 301 301 299 298 299 301 302 302 303 302
341 341 341 341 340 341 341 340 338 337 337 336 335 334 334 334 334 333 333 333 332 330 329 327 326 325 325 324 324 323 323 324 324 323 321 317 313 312 312 312 311 311 310 310 309 309 309 308 306 304 304 304 303 304 301 296 297 303 303 301 302 302 302 305 305 303 303 304 304 303 303 303 303 303 303 303 303 302 301 300 301 302 302 302 302
341 341 341 341 341 341 340 339 338 337 336 336 335 334 334 335 334 333 333 333 332 330 328 326 326 327 325 323 322 322 321 322 323 323 321 317 313 311 312 312 310 310 310 309 309 309 308 308 307 304 303 302 303 304 301 295 295 301 303 301 302 302 302 303 304 302 301 302 303 304 303 303 303 303 303 303 303 303 303 303 303 303 303 303 302
341 341 341 341 341 340 340 338 337 337 336 335 335 334 334 334 334 332 332 332 331 329 327 326 326 326 324 322 321 320 319 318 320 321 320 317 313 311 311 310 309 309 309 309 309 309 308 309 308 305 302 302 303 303 303 298 294 296 301 303 302 301 301 301 301 301 300 300 302 303 303 302 302 303 303 303 303 303 303 304 304 304 304 303 303
341 341 341 341 340 340 339 338 337 336 336 335 335 334 333 333 333 332 331 330 329 328 326 326 325 323 321 320 320 319 318 316 317 319 319 317 313 311 310 309 307 308 309 309 309 309 309 309 308 305 303 303 304 303 303 302 298 296 299 301 301 300 302 301 300 300 300 300 301 302 302 302 302 303 303 303 303 303 304 304 304 303 303 303 303
341 341 340 340 339 339 338 338 337 336 335 335 335 334 333 332 331 331 330 329 328 327 326 325 323 321 320 319 319 318 316 314 315 317 318 316 313 311 310 309 307 306 308 310 310 310 309 308 306 304 303 303 304 303 303 303 302 299 299 300 301 301 303 303 302 301 300 300 301 301 301 302 302 303 303 303 303 304 303 303 302 302 303 303 304
340 340 340 339 339 338 338 337 337 336 335 335 335 334 333 332 331 330 329 327 326 326 324 323 322 321 320 320 319 316 314 313 314 316 315 313 312 310 309 309 307 306 307 310 309 308 308 306 303 304 304 304 304 304 303 303 303 302 301 301 302 302 303 304 304 303 301 300 300 300 300 301 302 302 303 303 304 303 302 302 302 303 303 303 304
339 339 339 339 339 338 338 337 336 335 334 334 334 333 333 333 331 328 327 326 325 324 322 321 321 321 320 319 318 315 313 312 312 313 312 310 309 308 308 308 308 306 307 308 308 306 306 305 304 304 304 304 304 303 303 303 302 302 302 302 302 303 303 304 304 304 303 301 300 299 299 300 301 302 303 303 303 302 301 302 303 304 303 303 303
338 338 338 338 338 339 338 337 336 335 334 334 334 333 333 332 329 327 327 326 325 323 321 321 320 319 318 317 315 313 313 312 311 312 312 310 308 307 308 308 307 306 306 307 308 307 306 306 305 304 304 304 303 303 303 303 303 303 302 303 303 303 304 304 304 304 304 302 300 299 299 300 301 302 302 302 302 302 302 303 304 304 303 303 303
338 338 338 338 338 338 337 336 336 336 335 334 334 334 333 331 328 328 327 327 327 326 323 322 321 319 318 316 314 314 315 313 312 314 315 315 313 311 310 309 308 306 306 307 308 308 306 306 305 305 304 304 304 304 305 305 305 305 304 305 305 305 305 305 304 304 304 303 301 300 300 300 301 301 301 302 302 303 303 303 304 304 303 303 303
338 338 338 338 338 337 336 335 335 335 335 333 332 332 332 331 330 329 329 328 328 327 326 325 322 320 319 317 317 317 317 315 315 316 317 318 317 315 314 312 309 307 306 307 308 308 307 307 306 306 306 306 305 305 306 306 306 306 306 306 306 306 306 305 304 304 303 303 301 301 300 300 300 301 301 302 302 303 303 303 304 304 303 303 304
337 337 337 337 336 336 336 335 334 333 332 331 330 330 329 329 328 329 329 329 327 326 326 325 324 322 321 319 318 318 317 318 319 320 319 319 318 316 314 312 309 307 306 307 308 308 307 307 307 307 306 307 306 306 306 307 306 306 306 306 306 306 306 305 305 304 303 302 301 301 301 300 300 301 301 302 302 303 303 303 304 304 304 304 304
336 336 337 336 335 335 336 335 333 331 329 328 328 328 326 323 322 323 324 326 325 324 324 324 323 322 321 319 318 316 315 317 319 319 317 317 317 315 313 311 308 307 307 307 307 308 308 308 308 307 307 307 307 307 307 307 307 307 307 307 306 306 305 305 305 304 303 302 302 302 301 301 301 301 301 301 302 302 302 302 303 303 304 304 303
335 335 335 335 333 333 334 333 330 329 328 327 327 326 323 321 318 316 317 319 321 321 322 322 321 321 319 318 317 317 316 316 317 316 315 315 314 312 310 308 307 307 306 306 306 307 308 308 308 308 308 308 307 307 307 307 307 307 307 306 306 306 305 305 304 304 303 303 302 302 302 301 301 301 301 301 301 301 301 302 302 303 303 303 303
334 334 333 333 331 331 331 330 328 326 326 326 325 323 322 320 318 314 313 314 315 315 316 318 318 319 318 317 316 316 315 315 315 315 314 314 312 310 308 306 306 306 306 306 306 307 308 309 309 308 308 308 308 308 308 307 307 307 307 306 306 306 305 305 304 304 304 303 303 303 303 302 302 302 302 301 300 300 301 302 302 302 303 303 303
331 331 331 331 330 330 329 328 327 326 325 324 323 322 321 320 317 314 312 313 313 312 312 314 315 316 316 316 315 314 314 314 313 313 313 312 311 309 306 304 304 305 305 306 307 307 308 309 309 309 309 309 308 309 308 308 307 307 306 307 306 306 306 306 305 304 304 304 304 303 303 303 303 302 301 300 299 299 300 301 302 302 303 303 303
326 326 326 327 327 327 327 326 326 325 324 323 323 321 320 318 316 314 313 313 312 311 310 311 312 313 314 315 314 314 313 313 312 312 311 311 310 308 305 304 304 304 305 306 307 308 309 309 309 309 309 310 310 309 309 308 307 306 306 306 307 306 306 306 305 304 304 304 304 303 303 303 302 301 300 300 299 300 300 300 301 302 303 303 303
324 323 323 323 323 324 324 324 323 323 322 321 320 319 318 316 315 314 313 312 311 310 310 310 310 311 311 312 312 313 312 312 312 311 309 309 308 307 307 306 305 305 305 306 307 308 308 309 309 309 309 310 310 309 308 308 307 306 306 306 306 306 306 306 305 305 304 303 303 303 302 302 302 301 300 300 300 300 299 300 300 301 302 302 302
321 321 321 321 321 321 322 321 321 320 319 318 317 316 315 314 313 313 312 312 311 310 309 308 308 308 308 308 309 310 310 309 307 305 304 305 305 306 307 307 306 306 306 307 308 308 309 309 309 309 309 310 309 309 308 307 307 307 306 306 306 306 305 304 304 304 303 302 302 302 302 302 301 301 301 301 300 299 298 298 299 301 302 302 302
319 319 320 319 319 319 319 318 317 317 316 315 314 313 312 312 312 312 312 312 311 310 309 307 307 307 307 307 307 308 307 304 302 301 301 302 303 304 306 307 307 308 308 308 308 308 309 309 309 309 309 309 309 308 307 307 307 307 307 306 306 305 304 304 303 303 302 301 301 301 302 301 301 301 301 301 300 299 298 298 299 300 301 302 302
316 316 317 317 317 316 316 315 314 314 314 313 312 311 311 311 311 312 311 311 310 309 308 308 308 307 307 306 306 305 304 303 301 301 301 301 302 305 307 308 308 308 308 308 308 308 308 309 309 308 308 308 308 307 306 306 306 307 307 306 305 305 304 303 303 302 301 301 301 301 301 301 301 302 301 301 300 299 299 298 298 299 300 302 302
313 313 313 314 314 314 313 312 313 312 312 311 311 311 311 311 311 311 310 309 309 308 308 309 309 307 306 306 306 305 305 305 303 303 302 302 303 305 307 308 307 307 307 307 307 307 307 308 308 308 308 308 308 307 306 306 307 307 306 306 305 304 304 303 302 301 301 300 300 301 301 301 301 301 301 300 299 299 298 298 298 299 301 302 302
311 311 311 312 312 311 311 310 310 310 310 310 310 310 310 310 310 310 310 309 308 308 308 309 308 306 305 306 307 307 307 306 304 303 303 303 304 305 306 306 306 307 306 306 306 307 307 308 308 308 308 307 307 307 307 307 306 306 305 304 304 303 303 302 301 301 300 300 300 300 301 301 301 300 299 299 299 298 297 297 298 300 301 302 302
311 310 310 310 310 310 309 309 309 309 309 309 309 309 309 309 308 308 308 307 307 307 308 307 306 304 304 306 306 307 307 306 305 304 304 304 304 304 305 306 306 306 306 306 307 307 307 308 307 307 307 307 306 306 306 305 304 304 303 303 302 301 301 301 300 300 300 299 299 299 299 299 299 298 298 298 297 297 297 298 299 300 302 302 302
311 309 309 309 309 309 309 309 308 308 308 308 308 308 308 307 307 307 306 306 306 307 307 306 304 303 303 303 305 306 306 306 306 306 305 305 304 305 307 307 306 306 306 306 307 307 307 307 307 306 306 305 305 305 304 303 302 302 302 301 300 300 300 299 299 299 299 298 298 298 298 297 297 296 296 297 297 297 298 299 300 301 302 302 303
311 310 309 309 308 308 307 307 307 307 307 307 307 307 307 307 306 306 306 306 306 306 306 304 303 302 302 302 303 304 305 306 306 306 305 304 304 304 305 306 305 306 306 306 306 306 306 306 305 305 304 304 304 304 303 302 301 301 300 299 299 299 298 298 298 298 298 297 296 296 296 296 296 296 296 298 298 298 298 299 300 301 301 302 302
311 311 310 309 308 307 307 307 307 307 307 307 307 307 307 306 306 305 305 305 305 306 305 303 302 301 301 302 303 304 305 306 306 305 303 303 303 303 304 305 305 306 306 305 305 305 305 304 304 303 303 303 303 303 302 302 301 300 299 299 298 298 297 297 297 297 296 296 296 297 297 298 298 298 298 299 299 299 299 299 300 301 301 302 302
310 310 310 309 309 309 308 308 308 308 308 308 308 308 307 306 305 305 305 305 305 305 304 303 302 302 301 302 303 304 304 305 304 303 303 303 303 303 304 305 305 306 305 304 303 303 303 303 302 301 300 300 301 302 302 301 301 300 299 299 298 298 298 297 297 297 297 297 297 298 299 299 300 300 300 299 299 300 300 300 300 301 301 301 302
310 310 310 310 309 309 309 309 309 310 310 309 309 309 308 307 306 305 305 305 304 304 304 303 302 302 302 302 302 303 303 303 303 303 303 303 303 304 304 304 304 304 304 303 302 302 302 301 300 298 297 298 299 300 300 301 301 301 300 300 299 299 298 298 298 299 298 298 298 299 300 300 300 300 300 300 299 300 300 300 301 301 301 301 301
312 311 310 310 309 309 309 310 311 312 312 311 311 310 310 309 308 307 306 305 305 304 304 304 303 303 302 302 302 303 303 303 303 303 304 304 305 305 305 305 304 304 303 303 302 301 300 300 299 298 297 298 298 298 299 301 301 301 301 300 300 300 299 298 299 299 299 298 298 300 300 300 300 300 300 300 300 300 300 301 301 301 301 301 301
314 313 312 311 310 310 311 311 312 312 312 312 312 312 311 311 310 309 308 307 306 305 305 304 304 303 303 302 302 303 303 303 303 304 304 305 305 305 305 305 305 304 303 302 302 301 299 299 298 298 298 298 298 298 299 300 301 301 301 301 300 300 299 298 298 299 299 299 299 300 300 300 300 300 300 300 300 300 300 301 301 301 302 302 301
313 313 313 313 312 312 312 312 312 312 312 312 312 312 311 311 311 310 309 308 307 306 305 305 305 305 304 304 303 303 303 303 304 304 305 305 305 305 305 305 304 304 303 302 302 301 300 300 300 300 299 299 298 298 299 300 300 300 300 300 300 300 299 299 298 298 298 298 299 300 300 300 300 300 300 300 301 300 300 300 301 301 302 301 301
Wind_Speed
28 30 31 33 35 35 35 36 35 32 31 29 30 30 30 30 31 30 30 30 29 27 25 25 25 25 24 23 22 22 21 20 19 18 17 15 14 13 12 13 12 11 11 12 12 12 12 12 11 9 8 8 8 7 8 8 9 9 9 9 10 10 10 11 7 6 7 7 7 7 7 6 5 5 4 3 3 4 4 4 5 5 4 4 5
29 30 31 33 35 35 35 35 34 32 32 32 33 30 28 31 32 31 32 31 29 27 25 24 24 24 24 23 22 22 21 21 20 20 18 16 15 14 13 13 13 12 12 12 12 12 12 11 11 9 9 9 8 7 7 7 8 8 8 9 9 10 10 10 8 7 8 8 8 7 7 7 6 5 4 4 4 4 5 4 4 4 4 4 3
30 30 31 33 33 33 33 32 32 33 33 34 35 30 28 32 33 32 33 32 28 26 25 24 24 24 23 23 23 22 21 21 22 21 19 17 17 16 14 13 13 13 12 13 13 13 12 12 11 10 10 9 9 8 7 7 7 7 8 8 8 8 9 8 7 6 8 9 9 8 7 7 6 5 4 4 4 4 5 4 4 4 3 4 3
29 29 30 32 31 32 33 32 32 34 33 34 34 30 28 32 34 33 33 30 27 26 24 24 25 25 24 23 23 22 22 21 23 22 20 19 18 16 14 13 13 14 13 14 14 14 14 13 12 12 11 11 10 9 8 8 7 7 7 6 6 5 5 6 6 6 7 9 9 8 7 7 6 5 4 4 4 4 4 4 4 4 3 4 4
29 30 30 30 30 32 35 35 34 34 35 35 33 31 30 30 32 35 33 29 27 26 25 24 25 25 25 24 23 23 23 23 23 22 20 20 18 15 15 14 14 14 14 15 15 15 15 14 13 13 13 12 11 10 9 9 7 7 7 6 6 6 5 6 6 6 7 8 8 7 7 6 6 5 4 4 4 5 4 4 4 4 4 5 5
29 30 30 30 30 33 35 35 36 35 35 34 33 33 33 31 33 35 33 29 27 26 26 25 25 25 25 25 24 23 23 23 24 23 23 22 19 16 15 15 14 15 15 15 16 15 15 14 14 14 14 13 12 11 10 10 8 8 8 8 9 9 8 8 7 7 7 8 8 8 7 7 6 5 4 3 4 4 4 5 5 4 4 5 5
29 29 30 30 30 33 35 36 37 36 35 34 33 35 35 34 35 36 32 29 27 27 27 26 25 26 25 24 24 24 23 23 23 24 24 22 19 17 16 16 15 15 15 15 15 15 15 14 14 15 15 14 13 12 11 10 9 9 9 10 12 13 11 9 8 8 8 8 8 7 7 7 6 5 4 3 4 5 4 5 5 4 5 6 6
29 29 30 30 30 33 36 37 37 35 35 35 34 35 35 34 35 35 32 30 28 28 28 27 26 26 24 25 25 23 24 24 24 26 25 22 20 18 17 17 16 16 15 15 15 15 15 14 14 15 15 14 14 13 12 11 10 10 10 11 12 12 10 9 9 9 8 8 7 7 7 7 6 5 4 4 5 5 3 4 6 6 7 8 7
28 29 29 29 30 31 33 35 35 34 35 35 34 35 36 34 34 34 32 30 28 27 28 27 27 26 24 25 25 24 26 28 29 29 26 21 20 19 17 17 17 16 16 15 15 15 15 14 14 15 16 16 16 14 14 13 11 11 11 12 13 12 11 10 10 9 8 8 7 7 7 6 6 5 5 5 4 3 2 4 7 7 8 9 9
28 28 28 29 29 30 32 33 34 34 34 33 34 36 37 36 36 34 32 30 27 26 27 27 27 28 26 25 25 27 31 33 32 32 29 24 21 18 17 17 17 16 16 16 16 15 15 14 14 17 18 18 17 15 14 14 13 11 12 13 13 12 11 11 10 9 9 8 7 7 7 6 6 5 5 4 3 3 3 5 6 8 9 9 9
28 29 29 28 28 29 31 31 34 35 33 32 34 36 37 37 37 34 31 31 27 25 27 27 27 28 27 26 28 32 35 35 32 32 32 28 23 19 17 17 17 17 17 17 16 16 16 14 14 18 20 17 16 15 13 13 14 13 14 15 14 13 11 10 10 9 8 8 7 7 7 6 6 6 5 5 4 4 4 5 6 7 8 9 10
28 28 28 28 28 29 30 31 34 35 32 31 32 35 37 38 37 34 32 32 29 26 27 26 26 28 28 27 31 35 36 36 34 33 33 31 25 20 18 18 18 18 18 17 17 16 17 15 15 17 18 17 17 16 15 14 14 14 15 16 17 16 14 12 10 9 8 7 7 7 6 6 6 6 6 5 4 4 4 5 6 7 8 9 10
26 27 27 27 29 30 31 32 34 34 30 28 32 37 39 39 37 34 32 32 29 26 26 26 26 29 30 30 32 35 36 36 35 34 34 33 28 22 19 19 20 19 19 19 18 18 18 17 16 16 17 19 18 16 16 16 15 15 15 16 18 17 16 14 13 11 9 6 7 7 6 6 6 6 6 4 4 4 5 6 6 6 8 10 11
25 26 27 28 30 31 33 33 32 32 29 28 34 40 40 39 37 34 31 30 29 27 26 26 26 29 32 32 32 33 35 37 36 35 35 34 30 24 20 20 21 20 20 20 19 19 19 18 17 16 17 20 19 17 17 17 17 17 16 16 16 16 17 16 15 15 12 8 6 7 7 6 6 5 5 5 5 5 5 6 6 7 10 12 15
25 26 27 29 31 32 33 33 32 32 32 32 37 41 39 39 38 34 32 30 28 27 26 26 29 32 33 34 32 31 34 37 36 36 36 34 31 26 20 20 21 20 21 21 20 20 20 19 18 17 18 19 20 18 18 17 17 17 16 15 14 14 15 15 14 15 13 9 6 5 6 7 7 5 5 5 5 5 5 6 7 9 12 13 15
26 27 28 30 32 32 34 34 33 34 35 38 42 42 39 38 37 35 34 30 26 24 24 26 30 34 35 36 34 31 33 38 38 37 37 35 33 27 20 20 21 20 20 21 20 20 20 20 19 18 18 19 21 21 19 17 16 17 16 15 14 12 12 14 15 15 13 12 10 8 9 11 11 10 9 7 6 5 5 7 9 10 11 12 13
26 28 29 32 33 33 35 34 32 34 39 43 43 39 36 36 36 34 32 29 26 25 24 23 27 30 32 36 36 33 34 38 39 38 38 37 35 27 20 19 20 19 19 20 19 19 20 21 20 18 18 19 22 24 22 18 16 16 16 15 14 12 12 13 16 16 15 14 15 14 13 13 13 13 12 10 10 8 7 8 8 9 9 11 12
28 29 30 33 34 35 36 34 33 37 42 41 36 33 33 34 35 35 33 30 28 26 24 22 23 25 28 33 35 36 36 38 40 39 38 39 36 28 21 20 20 18 18 18 18 19 20 22 22 19 18 20 22 25 25 20 16 16 16 15 14 13 12 12 14 16 15 14 15 16 17 15 14 14 13 12 12 12 11 10 9 9 10 11 11
29 29 31 32 33 34 34 33 35 38 39 35 31 31 33 33 35 37 36 31 26 24 24 24 24 23 26 30 34 36 37 39 41 40 40 41 38 28 21 20 20 19 19 19 18 18 19 23 25 20 18 20 22 24 25 21 16 15 16 15 14 14 13 12 12 13 14 14 14 15 17 16 15 14 13 14 14 14 14 12 11 11 11 11 12
28 29 30 31 32 32 31 33 36 36 33 30 28 28 29 31 35 37 33 27 24 24 25 26 25 23 22 27 32 35 37 41 42 42 41 42 39 29 22 21 21 21 20 19 19 19 18 21 26 24 20 21 22 22 22 22 18 15 15 15 13 13 13 12 12 12 12 12 12 13 14 15 14 13 12 13 14 15 16 15 13 12 11 12 13
26 27 29 30 31 30 31 35 36 33 29 27 26 27 31 32 33 32 29 26 25 25 26 26 26 23 21 24 30 34 37 42 43 43 42 43 41 33 23 21 21 20 19 19 19 19 19 19 24 27 25 22 22 21 21 22 20 16 14 14 13 12 12 11 12 13 11 11 11 12 13 13 14 13 12 12 13 14 15 15 14 13 12 13 13
25 26 27 29 30 30 32 34 32 30 29 27 26 31 34 34 31 28 28 29 27 25 25 24 25 25 22 24 29 31 33 39 43 45 44 43 43 37 26 21 22 22 19 19 19 18 19 18 20 26 27 23 23 21 20 22 23 17 13 14 14 14 12 9 9 11 12 11 11 12 13 13 13 13 12 12 12 12 12 13 13 13 13 13 14
24 24 25 27 30 31 32 32 31 30 30 29 31 33 31 31 32 28 26 28 28 25 23 24 25 25 22 22 26 27 27 33 40 44 44 43 43 40 31 25 25 24 20 19 18 17 18 17 18 24 26 24 23 22 19 21 24 20 14 15 16 15 12 9 8 10 11 12 13 13 13 13 13 12 12 12 11 11 11 11 11 11 12 14 15
23 22 23 26 28 29 28 29 32 33 31 31 35 35 29 28 31 28 24 25 26 23 22 23 24 24 22 21 23 22 23 30 38 42 44 43 43 41 36 30 29 26 20 17 18 16 16 18 19 22 25 24 23 22 19 19 22 21 18 17 18 15 12 10 9 10 11 12 13 13 13 13 12 11 11 11 10 10 9 9 10 12 14 15 16
23 23 22 24 26 27 25 26 29 32 32 35 37 33 27 24 25 26 25 24 22 20 22 23 22 22 21 22 23 22 22 28 36 40 43 44 42 41 38 33 31 29 21 16 16 16 16 19 20 21 23 24 23 22 21 20 21 21 20 19 18 15 13 11 10 10 11 12 13 13 13 12 12 11 11 10 10 9 9 10 12 13 14 15 16
22 21 21 22 24 25 25 26 27 29 34 38 35 28 27 27 26 25 24 22 22 21 21 21 21 21 20 21 22 21 22 29 37 40 42 44 43 42 39 34 31 30 24 16 16 18 18 19 20 20 21 24 24 23 24 23 21 21 21 20 18 15 14 13 12 12 12 13 12 13 12 12 11 11 10 10 11 11 11 12 12 12 12 13 14
19 19 20 22 24 24 23 24 25 28 34 36 29 25 28 31 29 27 23 21 21 21 21 22 22 21 21 21 20 19 19 26 36 40 43 45 44 42 39 34 31 31 27 20 18 20 20 18 19 19 20 23 25 24 24 23 23 25 24 22 20 17 15 15 15 13 13 13 12 12 12 11 11 11 10 11 12 12 12 12 11 12 12 12 13
16 17 18 21 23 24 24 24 24 26 32 33 27 26 29 29 29 30 29 28 26 23 21 23 24 23 22 22 22 20 19 24 33 42 46 46 44 42 40 36 33 33 30 22 17 19 20 19 18 18 20 22 23 23 22 21 22 24 23 20 19 19 18 17 16 14 13 13 12 12 11 11 11 11 11 12 12 11 11 11 11 11 11 12 12
16 17 19 19 19 19 21 23 23 23 28 30 28 27 29 27 26 28 31 35 36 31 26 25 24 24 27 29 28 26 24 26 34 44 49 48 47 46 44 39 37 36 34 25 18 17 19 19 17 17 18 19 20 20 19 19 19 20 20 20 19 19 19 18 17 16 15 14 13 13 12 11 11 12 12 12 12 11 10 10 10 10 11 11 12
16 17 19 19 17 15 16 18 19 21 25 26 24 24 24 24 25 28 31 36 39 37 33 32 30 29 33 38 39 36 33 34 38 45 48 49 48 47 44 42 39 36 33 28 21 17 18 17 16 17 17 17 19 20 20 20 19 18 19 20 20 20 19 19 18 18 17 16 15 13 12 12 12 12 12 12 11 11 10 10 10 11 11 11 12
13 15 17 16 15 15 14 13 15 18 22 23 22 21 20 20 23 27 31 35 36 35 34 35 35 35 37 41 41 37 33 34 39 45 49 50 49 47 44 41 37 33 32 32 24 17 17 17 16 17 18 18 20 21 20 19 19 18 18 20 20 21 20 19 19 18 17 16 16 14 13 12 12 11 11 12 11 10 10 9 10 10 11 11 12
11 13 14 14 16 19 16 14 16 19 19 20 22 21 17 15 15 16 20 27 32 34 34 34 35 37 37 37 36 33 28 29 36 43 45 47 49 47 44 42 39 34 34 33 24 17 17 19 17 18 19 19 20 21 20 19 19 18 19 19 20 21 21 20 19 18 17 16 16 15 14 12 11 11 12 11 10 9 9 10 11 11 10 11 12
11 13 12 12 16 20 18 17 20 22 20 19 22 21 16 14 13 12 13 18 23 28 32 33 34 35 35 32 32 32 31 30 33 37 40 44 47 45 41 40 39 36 35 33 26 18 17 19 18 18 19 19 19 20 19 19 18 18 19 20 19 20 21 20 19 18 18 17 16 15 14 13 12 13 12 11 10 10 11 12 12 11 11 12 12
11 12 13 13 14 17 18 18 21 22 22 21 22 21 18 18 18 19 19 17 16 19 23 26 28 31 32 29 28 29 29 29 29 32 37 42 44 43 39 37 36 34 33 34 28 21 19 20 20 19 19 19 19 19 19 19 19 19 19 20 20 20 19 19 19 19 19 18 17 16 15 15 15 14 12 10 11 12 13 13 11 11 12 12 12
7 9 14 15 13 13 16 18 19 21 21 21 21 22 21 21 22 23 22 19 17 18 20 22 24 27 29 28 26 26 26 25 26 29 34 40 43 41 37 34 32 32 31 30 27 22 20 20 20 20 19 19 19 20 20 20 19 19 19 19 20 21 19 18 19 19 19 18 18 17 16 16 15 14 12 11 13 13 12 11 11 12 13 13 12
2 5 10 13 11 10 13 17 18 19 20 20 20 21 22 22 22 22 21 20 21 22 21 22 23 24 26 27 26 23 22 22 22 26 32 38 42 41 37 34 33 32 30 28 25 22 20 19 20 20 20 20 20 21 21 20 19 19 19 18 19 20 19 18 17 18 19 18 17 17 17 17 16 15 14 13 14 13 12 11 12 13 13 12 12
0 2 5 9 9 9 10 13 15 16 17 17 17 19 21 22 23 22 21 22 25 25 23 25 26 25 23 23 22 21 20 19 21 24 29 34 39 40 38 36 34 30 26 24 23 21 19 20 21 21 20 20 21 21 20 19 18 18 18 18 18 18 19 18 17 17 17 17 16 16 17 17 16 15 14 14 13 12 11 12 13 13 13 12 11
1 2 4 6 7 7 8 10 12 15 17 17 17 19 21 22 23 24 23 25 27 24 22 25 28 27 24 22 22 23 23 22 23 25 29 33 36 35 32 30 28 24 22 22 22 21 20 20 21 21 20 21 22 21 19 18 18 17 17 17 17 17 17 17 16 16 16 16 15 15 16 16 16 16 15 14 13 12 12 12 12 13 13 12 11
2 4 6 7 8 7 8 10 14 17 18 16 16 19 22 22 22 22 22 23 24 22 21 23 25 26 27 28 28 28 29 28 28 29 31 34 35 31 25 23 23 22 21 22 22 21 20 19 19 19 19 19 20 20 19 17 17 17 17 17 17 17 17 17 16 15 15 15 15 15 16 16 17 17 16 15 14 13 13 13 13 13 13 12 11
3 4 6 8 9 8 9 13 15 17 17 17 17 20 22 22 21 21 21 21 20 19 21 24 24 26 32 35 36 35 33 30 29 31 31 30 30 27 23 21 22 21 21 21 21 21 20 18 17 17 18 18 18 19 19 18 17 17 17 17 16 17 17 17 17 16 14 15 16 16 16 17 17 17 16 15 14 13 13 13 13 14 13 13 13
3 5 7 9 9 9 10 11 11 13 16 18 18 19 20 20 20 21 21 21 21 20 21 21 21 26 33 37 36 33 29 24 24 26 25 24 24 23 21 20 20 20 20 20 21 20 19 18 17 17 17 19 19 19 18 18 17 16 16 16 16 16 16 16 17 16 15 15 16 17 17 17 17 16 16 15 14 14 13 13 14 14 13 14 14
4 5 6 7 8 9 10 10 10 12 14 15 15 14 16 18 20 20 21 22 23 23 21 19 20 25 32 36 34 29 22 20 22 23 22 22 22 19 16 16 17 18 20 23 23 20 18 18 18 17 17 18 19 18 17 17 16 16 16 16 16 16 16 15 16 17 17 17 17 17 18 17 16 16 16 15 14 14 14 14 15 14 13 13 13
6 5 5 6 7 9 10 10 10 11 11 12 12 13 15 17 18 19 20 22 24 23 21 20 21 25 30 34 33 26 20 22 27 27 27 28 26 20 16 15 15 16 19 23 22 19 17 17 17 16 16 16 17 17 17 16 15 15 15 15 15 16 16 15 15 16 17 18 17 17 17 17 16 16 16 15 15 15 14 14 14 14 14 14 13
7 8 8 8 9 10 10 10 10 11 11 13 14 14 14 16 18 18 19 19 19 19 19 19 22 26 29 31 29 23 20 24 28 29 30 31 29 25 23 22 19 17 17 18 18 17 16 16 16 15 14 14 14 14 14 14 14 14 14 14 15 15 16 16 16 15 15 17 17 16 16 17 17 17 17 16 16 16 15 15 14 14 14 14 14
8 9 11 11 10 12 13 14 14 14 14 15 15 14 12 14 18 19 18 18 18 17 17 18 20 23 26 26 23 19 19 23 25 26 27 27 27 25 24 21 18 16 15 15 16 16 15 14 13 13 13 12 12 13 13 12 12 12 13 14 15 15 16 18 18 16 14 15 16 16 16 16 17 18 17 16 16 16 16 16 15 14 14 15 14
8 9 11 12 12 14 16 16 16 16 15 15 15 13 12 13 15 16 17 17 17 16 16 17 17 19 20 21 21 20 22 24 24 24 25 25 23 22 19 17 16 16 15 15 16 16 14 13 13 13 12 11 11 11 12 12 12 12 12 13 14 14 15 16 17 17 16 16 15 15 14 15 15 16 17 16 15 15 16 16 15 14 15 16 15
10 10 12 12 13 13 13 14 14 15 15 14 13 12 12 13 13 13 14 14 13 12 13 15 16 16 17 18 20 21 21 20 19 19 21 21 20 17 16 15 15 14 12 13 15 16 16 16 16 17 17 15 12 11 11 12 12 12 12 13 13 13 13 14 15 16 17 17 17 15 13 13 13 14 15 16 16 15 15 15 15 14 15 16 15
10 11 12 12 12 12 12 12 12 11 11 11 11 11 12 13 13 12 12 12 11 10 10 12 13 14 14 15 16 17 16 15 15 15 17 18 19 19 19 18 17 14 13 13 16 18 17 18 19 21 21 19 16 14 13 13 13 14 14 14 14 14 15 15 14 14 15 17 17 16 14 13 12 11 12 14 16 15 14 15 16 15 15 16 15
9 9 9 11 13 13 12 10 9 9 10 10 10 11 11 11 11 11 10 10 9 9 9 9 10 10 12 14 17 17 17 17 18 18 18 19 21 22 22 20 19 17 17 18 18 18 17 17 19 21 22 20 19 18 16 15 15 15 15 15 15 18 19 18 16 14 14 16 16 16 15 14 13 11 10 10 13 14 13 14 15 16 15 15 14
9 8 8 9 11 11 10 9 9 10 11 12 11 12 12 11 11 11 11 10 9 9 9 10 10 10 10 12 15 17 18 18 19 18 18 18 18 17 17 18 18 17 17 17 17 17 17 19 21 22 22 21 19 19 18 18 17 17 17 16 18 21 22 21 19 18 17 16 15 16 16 15 13 12 11 10 11 14 14 13 14 15 15 14 13
10 9 9 8 8 8 8 9 9 9 9 10 11 11 11 11 10 10 10 10 10 10 9 9 10 9 9 9 11 12 13 14 14 13 14 14 13 13 14 15 16 16 15 14 14 15 17 20 21 22 23 22 22 21 21 22 22 22 21 21 22 22 22 22 23 23 22 19 15 15 16 15 14 14 13 11 11 13 15 14 13 13 13 13 13
Wind_Direction
201 203 207 210 212 213 211 210 210 208 204 199 195 195 195 197 199 201 202 200 200 202 197 193 193 191 191 193 192 192 193 194 193 192 192 192 192 197 196 197 203 204 201 199 197 197 196 197 196 191 189 191 196 201 203 210 213 218 223 218 219 218 214 229 229 155 143 164 169 175 185 190 210 223 226 235 255 286 284 276 293 305 317 303 276
202 203 207 212 213 213 212 209 208 207 202 200 200 195 192 197 200 200 202 202 199 198 195 191 191 191 191 192 191 191 191 192 194 193 192 192 191 194 195 197 201 200 197 194 192 191 190 192 190 184 185 190 194 198 196 198 202 207 213 211 213 213 208 219 222 177 158 169 175 178 183 197 215 215 219 238 254 279 281 277 293 297 301 312 291
204 203 208 212 212 211 210 207 207 206 202 202 204 196 191 198 201 199 202 203 198 197 194 191 191 189 190 191 190 190 190 191 195 196 193 191 192 194 194 196 199 197 195 193 189 186 186 188 187 180 181 186 189 191 187 187 193 196 199 203 207 207 204 216 223 192 168 169 178 182 182 197 216 212 212 237 255 276 282 272 281 291 288 297 297
202 201 205 209 210 210 208 206 207 207 204 206 206 198 193 198 200 200 203 202 197 194 192 191 191 189 190 191 188 189 188 190 196 197 194 194 194 193 193 195 198 197 195 192 188 186 186 187 185 182 182 185 185 185 183 182 186 186 183 188 190 180 180 206 224 201 172 168 177 184 180 187 205 213 219 240 250 261 276 276 273 279 282 288 288
199 199 201 203 205 209 208 207 207 205 205 208 207 201 197 197 197 199 202 201 194 189 188 190 191 189 190 190 188 188 188 191 195 193 194 197 195 192 193 194 196 196 194 191 188 186 187 186 184 183 182 184 184 184 183 181 179 177 174 168 154 139 156 194 206 193 177 171 170 172 178 188 199 207 220 249 260 258 262 269 270 274 282 289 281
199 200 200 199 202 207 207 206 206 205 207 208 205 201 199 196 196 199 202 201 192 185 187 190 190 191 191 190 189 188 189 193 194 192 197 199 194 190 191 192 193 194 191 189 188 187 187 186 184 183 183 183 183 181 178 176 173 169 164 154 144 149 176 196 190 182 181 175 168 172 185 192 197 207 216 242 270 276 280 279 269 267 284 295 290
197 197 197 197 200 206 208 207 207 205 206 207 204 201 200 198 198 199 201 200 191 184 187 189 190 192 191 189 190 190 190 190 191 194 197 196 191 188 189 189 190 191 189 188 188 187 186 186 184 184 185 184 182 178 174 173 173 168 160 154 157 168 184 189 179 179 181 175 175 181 187 190 200 212 206 215 255 263 278 293 286 283 298 303 301
195 195 195 195 198 205 209 209 207 204 204 205 204 201 199 197 198 198 200 200 192 185 186 188 190 192 190 189 190 189 188 187 190 196 196 191 189 188 187 187 187 187 188 187 187 185 185 185 185 185 186 184 180 176 174 172 170 169 166 164 169 177 184 183 179 182 183 183 187 187 185 190 199 206 205 219 242 242 250 296 299 298 303 303 299
193 194 195 195 197 205 208 208 205 202 201 203 203 201 199 197 197 197 199 200 194 186 185 187 189 189 187 189 189 188 191 194 197 199 195 187 188 188 186 187 185 184 185 185 185 184 184 184 186 186 186 184 182 178 179 179 172 172 176 175 176 182 185 184 185 186 187 190 192 190 192 198 197 202 212 221 242 257 262 285 290 294 301 302 297
195 194 196 196 198 203 206 206 204 201 199 200 200 199 198 197 197 197 198 200 194 185 183 186 188 188 187 185 186 192 199 202 204 205 199 191 188 186 185 185 184 183 183 184 184 183 184 183 185 189 189 188 188 186 188 187 177 176 181 179 181 186 186 186 189 189 189 194 195 195 200 203 199 206 218 225 239 258 265 276 288 299 304 303 305
194 195 197 198 198 202 204 204 204 201 198 199 199 197 195 195 196 196 196 199 195 185 182 184 185 187 185 184 190 199 204 205 207 208 204 197 188 183 183 183 183 184 184 184 183 182 183 181 182 191 193 192 190 190 191 189 184 184 187 183 183 186 187 189 189 188 192 198 197 200 207 204 197 206 219 222 225 234 257 276 287 300 309 310 314
196 196 199 201 200 201 203 202 202 199 197 197 197 195 194 194 195 195 195 197 196 187 182 183 184 186 186 187 196 203 206 207 208 208 205 200 192 184 182 181 182 184 185 186 184 182 182 180 180 187 190 189 187 188 190 191 191 193 193 191 191 189 187 188 185 183 196 208 202 202 210 206 198 210 219 220 227 238 254 268 277 294 305 308 310
197 196 198 201 202 201 201 201 199 196 194 195 195 194 194 194 193 193 193 195 194 188 183 182 184 188 191 194 200 204 206 207 208 206 204 202 196 189 183 181 182 183 185 186 185 183 181 178 178 180 185 188 187 186 190 192 194 195 193 195 200 199 195 192 186 182 190 210 214 208 208 207 205 211 214 213 233 249 257 270 282 294 302 307 309
196 196 197 199 201 201 200 200 196 192 191 192 193 194 194 193 192 192 191 192 192 190 185 182 185 191 195 198 200 202 205 208 207 206 204 202 198 193 185 183 184 184 185 186 185 183 181 179 178 179 183 188 187 185 187 190 193 194 190 191 200 206 204 200 197 193 191 197 215 214 207 208 213 215 205 206 229 248 265 284 297 302 302 301 298
197 198 198 199 200 200 200 199 193 191 193 193 193 194 193 191 192 192 191 190 192 192 187 184 190 196 198 199 200 200 204 208 207 205 204 202 198 193 186 184 186 185 185 185 184 183 182 181 181 182 182 186 189 188 186 185 186 187 187 188 194 202 207 206 207 206 201 203 216 219 211 208 209 208 200 206 228 248 268 284 290 291 290 291 291
199 199 199 199 198 197 198 197 192 191 192 192 191 192 191 192 193 192 192 191 191 192 191 189 194 200 200 201 200 199 204 209 208 205 204 201 197 192 185 184 186 185 184 184 182 182 182 182 184 186 185 187 191 190 185 182 182 182 184 189 192 196 204 210 213 210 205 206 208 210 213 209 206 208 210 216 227 246 272 279 277 278 282 291 299
200 200 199 198 197 196 197 196 191 190 191 190 189 190 190 191 191 189 190 191 190 191 194 191 192 195 198 200 201 199 203 210 209 204 202 200 195 189 183 184 186 185 185 185 182 182 183 184 185 187 187 189 195 195 189 184 183 184 185 188 191 195 201 213 221 218 212 210 208 211 217 218 218 223 227 233 238 246 263 273 281 289 293 299 307
200 199 199 198 197 197 198 195 189 187 189 188 187 188 189 190 191 191 192 193 191 191 193 194 191 190 192 197 200 199 204 210 208 203 202 200 194 187 183 185 185 184 185 185 185 185 185 186 187 187 187 193 201 201 196 192 189 189 189 187 190 197 200 208 218 219 218 219 218 220 225 229 231 231 233 240 243 245 251 261 281 295 296 300 306
201 197 196 198 198 198 198 194 188 187 189 188 185 187 189 188 191 194 193 192 189 188 192 197 195 190 191 197 200 200 204 209 207 203 201 199 194 188 185 184 183 184 185 184 185 187 185 187 190 187 188 198 204 202 200 199 193 191 191 189 192 200 202 202 204 207 211 215 221 226 228 232 235 234 237 244 245 246 248 252 269 282 287 297 303
201 197 195 197 200 199 194 191 189 188 188 186 182 183 185 185 188 190 191 190 188 188 192 195 193 189 191 199 201 200 205 209 206 202 201 199 194 190 186 186 185 183 183 182 183 185 184 187 193 193 193 201 203 201 202 200 191 190 193 193 196 200 200 202 203 199 202 208 215 223 226 228 232 232 235 241 244 248 249 248 255 267 278 291 296
201 198 195 196 199 198 191 188 190 189 185 182 180 182 184 185 185 185 187 188 189 192 195 195 194 195 197 202 202 200 204 208 204 200 200 199 195 191 187 187 184 180 181 184 184 187 185 183 192 198 200 203 201 200 204 199 189 188 196 198 200 199 194 200 204 200 203 210 214 220 223 224 226 227 230 235 237 240 242 241 245 253 266 282 289
200 197 195 194 196 194 189 187 187 186 182 179 179 183 186 187 185 183 186 190 190 192 192 190 193 198 202 207 206 202 204 208 204 199 198 198 197 193 189 186 182 178 182 188 187 189 188 182 189 198 201 203 201 200 204 200 192 191 199 203 203 199 193 199 202 201 208 215 218 222 224 223 225 227 230 234 235 233 233 235 239 246 258 270 279
200 197 196 194 192 191 188 186 183 182 181 179 179 182 184 186 186 184 185 188 188 187 187 187 189 192 194 202 204 198 199 206 204 199 197 197 198 197 193 190 187 182 182 188 190 191 187 182 188 196 197 198 200 201 204 202 199 198 201 205 207 202 199 206 209 206 211 216 221 226 227 225 228 228 229 233 237 236 233 234 240 250 261 268 272
200 196 193 192 191 188 184 183 182 182 181 180 182 184 184 186 187 185 183 184 184 183 184 185 187 188 188 194 198 193 194 202 203 200 198 197 198 199 198 196 192 188 186 191 194 189 182 182 190 196 195 195 198 201 203 204 204 204 205 208 211 207 206 213 213 210 212 217 221 227 228 228 230 231 231 235 239 239 236 239 250 262 269 271 272
198 194 190 191 190 185 180 181 183 182 181 182 183 184 182 182 184 184 184 183 179 177 179 182 186 187 186 191 194 190 190 197 200 200 199 198 198 200 200 200 198 194 192 193 192 185 179 186 195 197 195 195 196 200 205 208 208 209 210 212 213 212 216 221 220 215 217 220 223 227 230 231 232 234 237 238 241 243 244 250 259 266 270 270 270
192 188 186 188 188 183 180 181 181 181 182 184 185 184 182 182 182 183 184 185 182 177 173 175 180 182 185 191 193 188 187 194 197 197 198 198 198 199 200 201 201 199 198 197 194 191 191 197 202 200 196 195 196 200 206 210 211 212 215 217 218 218 221 224 224 223 222 223 226 229 231 233 234 233 232 234 240 245 247 254 262 268 273 273 274
186 183 184 186 189 188 183 178 177 180 183 185 186 186 186 185 183 181 181 179 179 178 173 172 176 178 180 183 182 181 187 192 193 195 196 196 196 197 198 199 200 200 201 202 200 198 199 202 205 202 199 198 199 202 207 211 214 215 217 220 221 221 222 224 227 228 227 228 230 231 233 235 234 230 226 231 240 244 245 252 262 270 276 278 280
184 187 189 188 189 191 186 178 175 179 184 186 186 186 185 184 183 184 185 183 181 179 176 178 180 178 174 171 168 174 189 194 193 194 195 194 193 193 195 197 198 199 201 201 195 194 196 197 195 195 195 196 197 201 204 208 212 214 215 216 219 221 223 226 229 229 229 231 233 233 233 232 232 232 233 236 241 243 244 251 261 269 276 277 279
186 192 194 191 189 186 182 177 176 180 185 189 189 187 186 185 185 189 195 195 193 190 185 184 182 179 179 180 178 180 191 197 197 197 197 195 194 194 194 194 196 199 200 195 182 178 184 184 180 181 185 189 192 197 202 205 208 210 210 213 217 219 219 221 223 225 227 229 231 231 231 233 235 236 237 239 241 242 248 255 261 266 271 275 279
190 193 195 194 188 178 172 175 179 181 183 185 186 186 187 189 191 196 203 205 202 200 199 196 191 186 188 194 196 196 197 198 198 197 197 197 197 197 196 194 194 196 194 187 177 171 175 176 177 181 185 189 194 199 204 206 207 208 208 210 215 216 215 216 220 222 223 226 228 228 229 233 237 237 236 238 239 242 247 252 256 261 267 272 278
189 193 194 192 186 181 178 177 176 176 177 180 183 185 186 190 195 201 207 208 205 204 206 205 200 197 198 199 200 201 202 202 201 199 198 197 197 197 196 194 192 192 189 183 177 173 176 180 185 189 191 195 199 202 205 206 207 208 207 207 210 213 215 217 219 219 220 221 223 226 228 231 234 237 238 240 242 245 250 252 253 257 262 268 276
190 197 198 191 187 190 193 186 177 177 179 182 186 186 183 182 186 194 204 207 206 205 206 206 205 205 205 201 197 195 197 202 204 202 198 196 196 195 194 192 191 192 190 184 178 175 181 188 193 194 195 199 201 203 205 207 207 207 208 207 209 213 216 218 218 217 218 218 219 222 226 228 232 238 241 242 242 245 254 259 260 261 263 267 275
205 206 203 193 190 194 194 185 180 181 184 187 188 187 182 175 168 161 170 191 201 202 202 204 204 204 203 202 199 197 196 199 202 201 199 197 195 192 190 190 190 191 189 185 182 181 188 195 199 198 198 202 203 203 206 209 210 210 211 211 212 214 216 217 215 214 217 220 220 221 223 227 233 237 239 242 245 247 252 256 260 264 266 268 273
223 217 210 202 196 195 194 187 182 183 187 189 188 187 186 182 171 155 150 161 177 186 192 199 202 200 200 201 202 202 200 199 199 199 198 196 193 189 187 186 187 190 191 189 187 190 196 201 204 203 202 205 206 206 208 211 212 214 215 215 217 219 217 212 210 212 217 220 221 222 224 228 231 230 230 239 246 246 246 248 253 260 264 266 270
226 223 217 210 204 201 200 193 187 186 188 188 187 188 187 182 175 167 163 161 162 166 175 184 191 196 198 199 202 203 200 196 195 195 194 192 189 186 183 180 181 187 192 193 194 198 202 204 207 208 207 207 209 212 213 212 213 214 215 216 220 222 218 211 209 214 218 219 220 222 224 226 225 223 227 240 245 241 239 241 247 254 257 260 267
207 217 216 210 204 205 205 198 193 191 190 189 189 189 184 177 173 172 170 163 157 157 163 170 178 190 199 201 202 202 198 193 191 191 191 191 188 183 179 178 181 186 192 197 201 204 204 204 207 209 210 211 214 217 216 214 213 214 215 216 219 221 219 215 212 213 215 215 217 218 219 220 220 222 229 239 241 238 237 240 246 252 256 262 269
264 223 211 204 200 202 201 197 196 194 189 183 180 177 174 173 171 166 162 159 157 158 162 164 167 174 186 193 196 193 189 187 187 186 188 189 187 184 183 184 187 189 193 197 201 202 203 206 207 208 209 212 216 219 217 215 214 213 214 217 220 220 220 219 217 213 211 210 211 213 214 217 220 222 228 235 236 237 240 242 245 251 254 257 262
279 250 219 204 199 197 191 187 188 187 181 174 168 163 161 165 166 162 160 161 161 161 163 164 164 165 166 171 179 180 175 171 170 172 176 180 181 182 183 185 187 190 193 195 196 198 202 205 207 207 208 211 216 220 219 214 211 211 213 217 219 220 220 220 219 214 208 205 209 212 213 216 220 221 224 230 233 237 241 242 244 248 249 245 245
220 228 222 210 200 192 182 177 175 173 170 165 163 161 159 160 162 162 162 163 165 163 161 161 163 163 161 164 171 171 166 161 160 162 168 175 179 181 183 186 189 192 192 192 194 198 202 204 205 206 208 211 214 216 215 213 212 214 216 217 217 217 217 216 216 214 209 208 214 216 215 217 221 221 224 229 232 234 236 238 241 247 249 246 241
176 195 202 199 192 183 176 171 168 167 165 163 162 161 161 162 163 164 164 164 163 160 160 161 162 164 166 170 172 169 162 158 160 164 169 174 179 183 186 189 190 189 188 190 193 195 199 203 203 202 205 209 211 212 214 216 215 214 215 216 216 215 214 213 214 215 213 213 215 217 216 218 220 222 225 230 232 232 231 233 237 241 245 249 249
126 147 163 172 172 165 161 160 161 163 163 161 160 161 162 163 164 164 164 162 157 154 157 161 162 166 171 174 172 166 159 156 160 165 168 172 177 182 185 185 183 181 182 186 189 192 197 204 206 205 205 209 212 213 214 215 213 211 213 216 215 213 212 211 212 215 216 215 215 216 218 219 219 222 227 230 230 231 232 234 236 237 237 240 243
86 112 131 144 149 146 145 146 150 155 156 156 158 160 160 160 162 162 159 156 156 157 158 158 158 165 173 174 169 162 158 158 159 161 164 170 176 180 179 177 178 182 188 193 195 198 202 207 209 209 208 208 210 211 210 210 211 212 213 213 210 209 210 211 212 213 214 216 216 216 217 219 220 225 230 230 229 230 231 231 233 235 235 234 233
61 68 86 110 123 127 129 134 138 142 146 149 151 152 153 155 155 154 152 152 154 156 155 154 157 164 170 172 170 166 166 167 168 169 172 175 177 176 174 178 185 191 196 199 202 205 207 207 207 206 205 204 206 207 206 208 209 209 209 209 207 208 210 212 212 211 211 213 215 216 216 218 222 226 229 228 227 229 230 229 229 231 233 233 230
75 79 86 94 103 110 114 118 122 127 134 138 136 137 143 146 145 143 143 144 145 148 150 154 159 163 166 169 171 173 172 172 174 177 180 181 182 183 186 191 195 196 196 197 200 202 203 202 200 200 200 201 202 203 204 206 207 206 206 207 206 206 207 209 211 209 208 210 212 212 212 215 219 223 226 225 224 225 226 226 226 227 229 230 230
90 92 93 92 94 101 107 111 115 117 118 121 122 123 131 137 138 139 139 138 138 142 148 153 157 160 162 165 168 169 171 173 177 180 182 182 183 185 187 188 190 190 191 192 193 194 194 194 193 194 196 198 198 199 201 203 204 205 205 206 206 207 209 209 210 208 205 205 207 209 210 212 214 218 222 222 220 221 222 223 223 223 224 227 230
88 91 94 93 91 95 100 106 113 115 113 113 117 121 125 127 128 131 135 138 141 144 145 149 155 161 163 165 166 168 173 177 180 184 186 185 184 184 184 185 188 190 191 192 193 193 190 188 188 190 192 195 199 201 201 202 201 201 204 207 208 210 211 211 209 207 205 203 203 205 209 210 211 214 219 221 221 221 222 222 222 219 219 223 228
81 85 91 92 90 91 96 100 106 110 111 114 118 120 121 121 122 124 128 131 134 135 137 146 157 164 163 163 166 169 173 176 179 183 185 186 185 183 182 183 185 184 182 187 193 195 195 198 201 202 203 205 206 203 201 203 203 202 205 208 209 209 209 207 203 202 202 202 203 204 207 209 210 213 217 220 223 222 219 219 220 217 215 219 224
72 80 92 97 97 96 95 98 102 103 103 106 110 111 113 116 117 120 124 124 123 126 129 138 151 160 161 161 161 162 163 167 174 180 184 187 192 195 196 196 196 194 194 199 205 207 208 211 212 211 211 214 215 212 208 207 206 205 207 209 209 208 205 200 197 199 201 202 203 205 207 210 213 214 215 218 222 222 218 216 215 213 212 217 223
67 76 89 98 101 100 96 96 104 108 107 108 108 108 111 114 114 116 119 117 116 122 127 130 138 150 160 168 171 172 173 177 183 189 193 198 203 208 210 212 213 214 215 218 220 219 218 215 211 209 212 217 220 217 213 211 209 209 210 211 211 212 210 205 201 200 201 202 202 204 206 210 214 217 216 217 219 219 216 215 214 211 211 216 222
68 78 85 88 93 96 91 92 103 111 116 121 121 119 119 119 118 120 125 124 119 124 136 145 148 148 153 166 177 183 187 190 194 198 201 204 207 210 212 215 217 216 215 216 217 217 215 212 210 210 212 216 217 215 212 211 211 210 209 210 215 219 218 213 207 204 203 202 201 204 207 209 211 213 217 220 220 217 214 212 211 211 213 215 216
66 78 84 88 94 96 92 95 103 109 114 120 123 123 121 119 117 119 123 124 123 123 128 139 146 146 147 157 167 175 183 189 193 194 194 195 196 197 199 203 205 204 202 201 202 204 208 210 212 212 213 214 215 215 215 215 216 217 217 219 223 226 224 218 213 211 211 209 205 206 210 211 211 213 217 220 220 219 217 214 210 210 215 219 219